Weather History for KJST - March, 2013

Change the Weather History Date:

Wednesday, March 20, 2013

  Actual Average Record
Temperature  
Mean Temperature 26 °F 37 °F  
Max Temperature 32 °F 45 °F 80 °F (1945)
Min Temperature 21 °F 29 °F 12 °F (1914)
Degree Days  
Heating Degree Days 40 28  
Month to date heating degree days 629  
Since 1 July heating degree days 5508  
Cooling Degree Days 0 0  
Month to date cooling degree days 0  
Year to date cooling degree days 0  
Moisture  
Dew Point 17 °F    
Average Humidity 70    
Maximum Humidity 86    
Minimum Humidity 47    
Precipitation  
Precipitation 0.00 in 0.12 in 0.91 in (1944)
Month to date precipitation 1.88  
Year to date precipitation 7.11  
Sea Level Pressure  
Sea Level Pressure 29.82 in    
Wind  
Wind Speed 13 mph (WNW)    
Max Wind Speed 21 mph    
Max Gust Speed 29 mph    
Visibility 6 miles    
Events Fog , Snow    
T = Trace of Precipitation, MM = Missing Value Source: NWS Daily Summary

Daily Weather History Graph

Daily Weather History Graph

Search for Another Location

Airport or City:

Trip Planner

Search our weather history database for the weather conditions in past years. The results will help you decide how hot, cold, wet, or windy it might be!

Date:

Astronomy

Mar. 20, 2013 Rise Set
Actual Time 7:18 AM EDT 7:27 PM EDT
Civil Twilight 6:51 AM EDT 7:54 PM EDT
Nautical Twilight 6:19 AM EDT 8:26 PM EDT
Astronomical Twilight 5:47 AM EDT 8:59 PM EDT
Moon 1:00 PM EDT (3/20) 2:57 AM EDT (3/20)
Length of Visible Light 13h 03m
Length of Day
12h 09m
First Quarter, 59% of the Moon is Illuminated
Mar 20
First Quarter
Mar 27
Full
Apr 3
Last Quarter
Apr 10
New
Apr 18
First Quarter

Hourly Weather History & Observations

Time (EDT) Temp. Windchill Dew Point Humidity Pressure Visibility Wind Dir Wind Speed Gust Speed Precip Events Conditions
12:54 AM 25.0 °F 13.1 °F 14.0 °F 63% 29.91 in 10.0 mi West 13.8 mph 24.2 mph N/A   Overcast
1:54 AM 25.0 °F 13.1 °F 14.0 °F 63% 29.91 in 10.0 mi West 13.8 mph 23.0 mph N/A   Overcast
2:54 AM 24.1 °F 9.8 °F 12.9 °F 62% 29.92 in 10.0 mi West 19.6 mph 28.8 mph N/A   Overcast
3:54 AM 24.1 °F 11.0 °F 12.9 °F 62% 29.91 in 10.0 mi West 16.1 mph 21.9 mph N/A   Overcast
4:54 AM 24.1 °F 12.5 °F 12.0 °F 60% 29.92 in 10.0 mi West 12.7 mph 19.6 mph N/A   Overcast
5:54 AM 23.0 °F 11.7 °F 12.0 °F 63% 29.93 in 10.0 mi West 11.5 mph 21.9 mph N/A   Overcast
6:54 AM 23.0 °F 13.9 °F 12.0 °F 63% 29.94 in 10.0 mi West 8.1 mph 20.7 mph N/A   Overcast
7:54 AM 23.0 °F 9.2 °F 12.9 °F 65% 29.94 in 10.0 mi West 17.3 mph 23.0 mph N/A   Overcast
8:47 AM 24.8 °F 12.4 °F 12.2 °F 59% 29.85 in 10.0 mi West 15.0 mph 26.5 mph N/A   Mostly Cloudy
8:54 AM 24.1 °F 11.5 °F 14.0 °F 65% 29.94 in 10.0 mi West 15.0 mph 25.3 mph N/A   Mostly Cloudy
9:37 AM 24.8 °F 12.4 °F 14.0 °F 64% 29.84 in 10.0 mi WSW 15.0 mph 24.2 mph N/A   Scattered Clouds
9:54 AM 26.1 °F 16.2 °F 12.9 °F 58% 29.93 in 10.0 mi West 10.4 mph 19.6 mph N/A   Partly Cloudy
10:54 AM 28.0 °F 16.1 °F 12.0 °F 51% 29.91 in 10.0 mi West 16.1 mph - N/A   Scattered Clouds
11:54 AM 30.9 °F 21.2 °F 12.9 °F 47% 29.88 in 10.0 mi West 12.7 mph 24.2 mph N/A   Overcast
12:54 PM 30.9 °F 19.4 °F 15.1 °F 52% 29.86 in 10.0 mi WSW 17.3 mph 27.6 mph N/A   Overcast
1:54 PM 30.9 °F 18.4 °F 14.0 °F 50% 29.84 in 9.0 mi West 20.7 mph 26.5 mph 0.00 in   Overcast
2:54 PM 30.9 °F 19.8 °F 17.1 °F 57% 29.82 in 8.0 mi West 16.1 mph 26.5 mph 0.00 in Snow Light Snow
3:54 PM 30.9 °F 19.8 °F 16.0 °F 54% 29.81 in 10.0 mi West 16.1 mph 28.8 mph 0.00 in   Overcast
4:30 PM 30.2 °F 18.1 °F 17.6 °F 60% 29.73 in 9.0 mi WNW 18.4 mph - N/A   Overcast
4:54 PM 28.9 °F 17.7 °F 19.0 °F 67% 29.81 in 10.0 mi WNW 15.0 mph - 0.00 in   Overcast
5:54 PM 28.9 °F 18.6 °F 18.0 °F 64% 29.81 in 9.0 mi West 12.7 mph 19.6 mph 0.00 in   Overcast
6:07 PM 28.4 °F 19.1 °F 19.4 °F 69% 29.73 in 3.0 mi WNW 10.4 mph 19.6 mph 0.00 in Snow Light Snow
6:20 PM 28.4 °F 20.4 °F 19.4 °F 69% 29.73 in 1.8 mi WNW 8.1 mph - 0.00 in Snow Light Snow
6:28 PM 28.4 °F 19.7 °F 19.4 °F 69% 29.73 in 3.0 mi West 9.2 mph - 0.00 in Snow Light Snow
6:43 PM 26.6 °F 19.1 °F 21.2 °F 80% 29.73 in 2.0 mi West 6.9 mph - 0.00 in Snow Light Snow
6:54 PM 27.0 °F 17.3 °F 19.9 °F 75% 29.82 in 1.5 mi WNW 10.4 mph 19.6 mph 0.00 in Snow Light Snow
7:07 PM 26.6 °F 16.8 °F 21.2 °F 80% 29.74 in 0.5 mi WNW 10.4 mph - 0.00 in Fog , Snow Snow
7:20 PM 24.8 °F 16.1 °F 21.2 °F 86% 29.74 in 1.0 mi West 8.1 mph - 0.00 in Snow Light Snow
7:32 PM 24.8 °F 15.3 °F 21.2 °F 86% 29.74 in 0.8 mi West 9.2 mph - 0.00 in Snow Light Snow
7:42 PM 24.8 °F 16.1 °F 21.2 °F 86% 29.74 in 2.0 mi West 8.1 mph - 0.00 in Snow Light Snow
7:50 PM 24.8 °F 14.6 °F 21.2 °F 86% 29.74 in 5.0 mi WNW 10.4 mph - 0.00 in Snow Light Snow
7:54 PM 25.0 °F 16.3 °F 21.0 °F 85% 29.83 in 4.0 mi WNW 8.1 mph - 0.00 in Snow Light Snow
7:59 PM 24.8 °F 14.6 °F 21.2 °F 86% 29.74 in 1.8 mi WNW 10.4 mph - 0.00 in Snow Light Snow
8:12 PM 24.8 °F 16.1 °F 19.4 °F 80% 29.74 in 3.0 mi NW 8.1 mph - 0.00 in Snow Light Snow
8:37 PM 24.8 °F 13.4 °F 19.4 °F 80% 29.74 in 1.8 mi NW 12.7 mph - 0.00 in Snow Light Snow
8:54 PM 24.1 °F 14.4 °F 19.0 °F 81% 29.84 in 1.5 mi NW 9.2 mph - 0.00 in Snow Light Snow
9:07 PM 24.8 °F 15.3 °F 19.4 °F 80% 29.76 in 2.5 mi NW 9.2 mph - 0.00 in Snow Light Snow
9:26 PM 23.0 °F 11.7 °F 19.4 °F 86% 29.76 in 1.2 mi NNW 11.5 mph - 0.00 in Snow Light Snow
9:54 PM 23.0 °F 12.4 °F 18.0 °F 81% 29.86 in 2.0 mi NW 10.4 mph - 0.00 in Snow Light Snow
10:03 PM 23.0 °F 13.9 °F 19.4 °F 86% 29.77 in 1.5 mi NW 8.1 mph - 0.00 in Snow Light Snow
10:21 PM 21.2 °F 9.5 °F 17.6 °F 86% 29.77 in 3.0 mi NW 11.5 mph - 0.00 in Snow Light Snow
10:47 PM 21.2 °F 8.9 °F 15.8 °F 80% 29.77 in 2.0 mi WNW 12.7 mph 26.5 mph 0.00 in Snow Light Snow
10:54 PM 21.9 °F 9.8 °F 14.0 °F 72% 29.85 in 3.0 mi WNW 12.7 mph 24.2 mph 0.00 in Snow Light Snow
11:19 PM 21.2 °F 7.3 °F 12.2 °F 68% 29.77 in 10.0 mi West 16.1 mph - 0.00 in   Overcast
11:54 PM 21.0 °F 9.9 °F 9.0 °F 60% 29.85 in 10.0 mi West 10.4 mph - 0.00 in   Overcast